| time (UTC) | temp F | wind direction | speed knots | gust knots | rain 1hr in | rain 24hr in | rain mn in | humidity % | barometer mb |
| 20260504044517 | 59 | 210 | 3.5 | 7.0 | 0.00 | 0.00 | 0.00 | 61 | 1004.1 |
| 20260504043016 | 59 | 224 | 2.6 | 5.2 | 0.00 | 0.00 | 0.00 | 61 | 1004.2 |
| 20260504041524 | 59 | 190 | 1.7 | 3.5 | 0.00 | 0.00 | 0.00 | 61 | 1004.1 |
| 20260504040014 | 59 | 203 | 1.7 | 4.3 | 0.00 | 0.00 | 0.00 | 60 | 1004.3 |
| 20260504034518 | 60 | 219 | 1.7 | 3.5 | 0.00 | 0.00 | 0.00 | 59 | 1004.4 |
| 20260504033014 | 61 | 193 | 1.7 | 5.2 | 0.00 | 0.00 | 0.00 | 57 | 1004.6 |
| 20260504031513 | 61 | 221 | 2.6 | 9.6 | 0.00 | 0.00 | 0.00 | 56 | 1004.7 |
| 20260504030012 | 62 | 217 | 0.9 | 6.1 | 0.00 | 0.00 | 0.00 | 55 | 1004.8 |
| 20260504024512 | 62 | 233 | 3.5 | 7.8 | 0.00 | 0.00 | 0.00 | 54 | 1004.7 |
| 20260504023010 | 63 | 221 | 2.6 | 7.0 | 0.00 | 0.00 | 0.00 | 53 | 1004.6 |
| 20260504021512 | 63 | 236 | 3.5 | 7.8 | 0.00 | 0.00 | 0.00 | 52 | 1004.6 |
| 20260504020015 | 64 | 249 | 2.6 | 7.8 | 0.00 | 0.00 | 0.00 | 52 | 1004.5 |
| 20260504014517 | 64 | 221 | 1.7 | 10.4 | 0.00 | 0.00 | 0.00 | 51 | 1004.2 |
| 20260504013009 | 64 | 236 | 2.6 | 8.7 | 0.00 | 0.00 | 0.00 | 50 | 1004.1 |
| 20260504011508 | 65 | 246 | 3.5 | 9.6 | 0.00 | 0.00 | 0.00 | 49 | 1003.9 |
| 20260504010007 | 66 | 225 | 3.5 | 10.4 | 0.00 | 0.00 | 0.00 | 48 | 1003.9 |
| 20260504004516 | 66 | 238 | 3.5 | 8.7 | 0.00 | 0.00 | 0.00 | 46 | 1004.0 |
| 20260504003005 | 67 | 233 | 4.3 | 9.6 | 0.00 | 0.00 | 0.00 | 45 | 1003.9 |
| 20260504001505 | 68 | 257 | 3.5 | 7.8 | 0.00 | 0.00 | 0.00 | 44 | 1003.9 |
| 20260504000004 | 68 | 268 | 2.6 | 9.6 | 0.00 | 0.00 | 0.00 | 43 | 1003.9 |
| 20260503234504 | 68 | 212 | 4.3 | 11.3 | 0.00 | 0.00 | 0.00 | 42 | 1003.9 |
| 20260503233007 | 68 | 203 | 7.0 | 14.8 | 0.00 | 0.00 | 0.00 | 42 | 1003.9 |
| 20260503231601 | 68 | 261 | 4.3 | 16.5 | 0.00 | 0.00 | 0.00 | 42 | 1004.1 |
| 20260503224556 | 67 | 234 | 7.8 | 16.5 | 0.00 | 0.00 | 0.00 | 42 | 1004.3 |
| 20260503223054 | 67 | 228 | 7.0 | 15.6 | 0.00 | 0.00 | 0.00 | 42 | 1004.5 |
| 20260503221558 | 67 | 217 | 5.2 | 13.9 | 0.00 | 0.00 | 0.00 | 42 | 1004.7 |
| 20260503220050 | 66 | 248 | 6.1 | 13.9 | 0.00 | 0.00 | 0.00 | 43 | 1004.9 |
| 20260503214550 | 66 | 251 | 8.7 | 17.4 | 0.00 | 0.00 | 0.00 | 41 | 1005.0 |
| 20260503213048 | 67 | 230 | 5.2 | 15.6 | 0.00 | 0.00 | 0.00 | 41 | 1005.1 |
| 20260503211544 | 65 | 243 | 7.8 | 21.7 | 0.00 | 0.00 | 0.00 | 41 | 1005.5 |
| 20260503210042 | 64 | 216 | 12.2 | 24.3 | 0.00 | 0.00 | 0.00 | 40 | 1005.8 |
| 20260503204543 | 64 | 221 | 5.2 | 25.2 | 0.00 | 0.00 | 0.00 | 41 | 1006.1 |
| 20260503203052 | 64 | 174 | 8.7 | 23.5 | 0.00 | 0.00 | 0.00 | 42 | 1006.4 |
| 20260503201536 | 64 | 188 | 12.2 | 21.7 | 0.00 | 0.00 | 0.00 | 42 | 1006.5 |
| 20260503200033 | 64 | 241 | 5.2 | 20.9 | 0.00 | 0.00 | 0.00 | 45 | 1006.8 |
| 20260503194529 | 62 | 240 | 9.6 | 20.9 | 0.00 | 0.00 | 0.00 | 49 | 1007.0 |
| 20260503193026 | 61 | 221 | 12.2 | 19.1 | 0.00 | 0.00 | 0.00 | 51 | 1007.3 |
| 20260503191529 | 60 | 225 | 8.7 | 15.6 | 0.00 | 0.00 | 0.00 | 51 | 1007.4 |
| 20260503190023 | 58 | 193 | 11.3 | 18.2 | 0.00 | 0.00 | 0.00 | 51 | 1007.8 |
| 20260503184517 | 57 | 165 | 10.4 | 17.4 | 0.00 | 0.00 | 0.00 | 55 | 1008.0 |
| 20260503183017 | 56 | 206 | 8.7 | 15.6 | 0.00 | 0.00 | 0.00 | 57 | 1008.4 |
| 20260503181510 | 55 | 176 | 7.8 | 17.4 | 0.00 | 0.00 | 0.00 | 59 | 1008.8 |
| 20260503180010 | 55 | 181 | 7.8 | 14.8 | 0.00 | 0.00 | 0.00 | 59 | 1009.4 |
| 20260503174505 | 55 | 181 | 9.6 | 18.2 | 0.00 | 0.00 | 0.00 | 61 | 1010.1 |
| 20260503173003 | 54 | 178 | 7.8 | 19.1 | 0.00 | 0.00 | 0.00 | 62 | 1010.5 |
| 20260503171601 | 54 | 249 | 10.4 | 20.9 | 0.00 | 0.00 | 0.00 | 62 | 1010.8 |
| 20260503090104 | 47 | 214 | 2.6 | 7.8 | 0.00 | 0.00 | 0.00 | 52 | 1012.8 |
| 20260503081553 | 48 | 205 | 1.7 | 7.8 | 0.00 | 0.00 | 0.00 | 50 | 1013.0 |
| 20260503071605 | 47 | 208 | 0.9 | 4.3 | 0.00 | 0.00 | 0.00 | 51 | 1013.2 |
| 20260503054549 | 48 | 205 | 1.7 | 5.2 | 0.00 | 0.00 | 0.00 | 49 | 1013.9 |
| 20260503053034 | 48 | 212 | 0.9 | 4.3 | 0.00 | 0.00 | 0.00 | 50 | 1014.0 |